Puyallup, WA

5:12 AM PDT on July 28, 2017 (GMT -0700)
Pierce County - Thun Field

Weather History for KPLU - August, 2014

Change the Weather History Date:

Monday, August 4, 2014

  Actual Average (KTCM) Record (KTCM)
Temperature  
Mean Temperature 58 °F -  
Max Temperature 62 °F 75 °F 97 °F (1993)
Min Temperature 55 °F 52 °F 46 °F (1955)
Degree Days  
Heating Degree Days 6    
Growing Degree Days 8 (Base 50)    
Moisture  
Dew Point 57 °F    
Average Humidity 99    
Maximum Humidity 100    
Minimum Humidity 88    
Precipitation  
Precipitation 0.00 in - - ()
Sea Level Pressure  
Sea Level Pressure 29.99 in    
Wind  
Wind Speed 0 mph (North)    
Max Wind Speed 0 mph    
Max Gust Speed -    
Visibility 10 miles    
Events      
Averages and records for this station are not official NWS values.
T = Trace of Precipitation, MM = Missing Value Source: NWS Daily Summary

Daily Weather History Graph

Daily Weather History Graph

Search for Another Location

Airport or City:

Trip Planner

Search our weather history database for the weather conditions in past years. The results will help you decide how hot, cold, wet, or windy it might be!

Date:

Astronomy

Aug. 04, 2014 Rise Set
Actual Time 5:52 AM PDT 8:37 PM PDT
Civil Twilight 5:17 AM PDT 9:12 PM PDT
Nautical Twilight 4:32 AM PDT 9:56 PM PDT
Astronomical Twilight 3:39 AM PDT 10:48 PM PDT
Moon 2:54 PM PDT (8/4) 12:05 AM PDT (8/4)
Length of Visible Light 15h 55m
Length of Day
14h 45m
First Quarter, 58% of the Moon is Illuminated
Aug 4
First Quarter
Aug 10
Full
Aug 17
Last Quarter
Aug 25
New
Sep 2
First Quarter

Hourly Weather History & Observations

Time (PDT) Temp. Dew Point Humidity Pressure Visibility Wind Dir Wind Speed Gust Speed Precip Events Conditions
12:15 AM 60.8 °F 59.0 °F 94% 29.98 in 10.0 mi Calm Calm - N/A   Clear
12:35 AM 62.6 °F 59.0 °F 88% 29.98 in 10.0 mi Calm Calm - N/A   Clear
12:55 AM 59.0 °F 57.2 °F 94% 29.98 in 10.0 mi Calm Calm - N/A   Clear
1:15 AM 59.0 °F 59.0 °F 100% 29.98 in 10.0 mi Calm Calm - N/A   Clear
1:35 AM 59.0 °F 59.0 °F 100% 29.98 in 10.0 mi Calm Calm - N/A   Clear
1:55 AM 59.0 °F 59.0 °F 100% 29.98 in 10.0 mi Calm Calm - N/A   Clear
2:15 AM 57.2 °F 57.2 °F 100% 29.98 in 10.0 mi Calm Calm - N/A   Clear
2:35 AM 59.0 °F 59.0 °F 100% 29.98 in 10.0 mi Calm Calm - N/A   Clear
2:55 AM 57.2 °F 57.2 °F 100% 29.99 in 10.0 mi Calm Calm - N/A   Clear
3:15 AM 57.2 °F 57.2 °F 100% 29.99 in 10.0 mi Calm Calm - N/A   Clear
3:35 AM 57.2 °F 57.2 °F 100% 29.99 in 10.0 mi Calm Calm - N/A   Clear
3:55 AM 57.2 °F 57.2 °F 100% 29.99 in 10.0 mi Calm Calm - N/A   Clear
4:15 AM 57.2 °F 57.2 °F 100% 29.99 in 10.0 mi Calm Calm - N/A   Clear
4:35 AM 55.4 °F 55.4 °F 100% 29.99 in 10.0 mi Calm Calm - N/A   Clear
4:55 AM 57.2 °F 57.2 °F 100% 29.99 in 10.0 mi Calm Calm - N/A   Clear
5:15 AM 55.4 °F 55.4 °F 100% 29.99 in 10.0 mi Calm Calm - N/A   Clear
5:35 AM 55.4 °F 55.4 °F 100% 30.00 in 10.0 mi Calm Calm - N/A   Clear
5:55 AM 55.4 °F 55.4 °F 100% 30.00 in 10.0 mi Calm Calm - N/A   Clear
6:15 AM 55.4 °F 55.4 °F 100% 30.00 in 10.0 mi Calm Calm - N/A   Clear
6:35 AM 55.4 °F 55.4 °F 100% 30.00 in 10.0 mi Calm Calm - N/A   Clear
6:55 AM 55.4 °F 55.4 °F 100% 30.00 in 10.0 mi Calm Calm - N/A   Clear
7:15 AM 57.2 °F 57.2 °F 100% 30.01 in 10.0 mi Calm Calm - N/A   Clear